GW3840 Weather Reports


Display with metric or nautical units.
time (UTC)temp
F
wind
direction
speed
MPH
gust
MPH
rain 1hr
in
rain 24hr
in
rain mn
in
humidity
%
barometer
mb
20260506011106 41 313 5.0 13.0 0.00 0.00 0.00 52 1014.2
20260506010600 41 319 6.0 11.0 0.00 0.00 0.00 52 1014.1
20260506010056 41 338 9.0 15.0 0.00 0.00 0.00 51 1014.0
20260506005553 41 33 4.0 7.0 0.00 0.00 0.00 55 1014.0
20260506005049 41 342 6.0 9.0 0.00 0.00 0.00 53 1014.0
20260506004547 41 8 6.0 7.0 0.00 0.00 0.00 54 1013.8
20260506004043 41 310 4.0 14.0 0.00 0.00 0.00 53 1013.9
20260506003540 41 356 4.0 10.0 0.00 0.00 0.00 55 1013.7
20260506003036 41 294 6.0 9.0 0.00 0.00 0.00 53 1013.9
20260506002532 41 357 6.0 15.0 0.00 0.00 0.00 53 1013.8
20260506002028 41 284 4.0 6.0 0.00 0.00 0.00 54 1013.7
20260506001524 41 311 8.0 10.0 0.00 0.00 0.00 52 1013.9
20260506001022 41 260 5.0 11.0 0.00 0.00 0.00 54 1013.6
20260506000519 41 270 8.0 10.0 0.00 0.00 0.00 54 1013.7
20260506000017 41 347 6.0 8.0 0.00 0.00 0.00 55 1013.7
20260505235515 41 67 1.0 6.0 0.00 0.00 0.00 55 1013.5
20260505235011 41 296 6.0 8.0 0.00 0.00 0.00 54 1013.8
20260505234508 41 357 6.0 11.0 0.00 0.00 0.00 54 1013.7
20260505234005 42 279 6.0 9.0 0.00 0.00 0.00 55 1013.9
20260505233502 41 310 6.0 8.0 0.00 0.00 0.00 55 1013.5
20260505232959 41 0 4.0 8.0 0.00 0.00 0.00 55 1013.6
20260505232457 41 305 6.0 8.0 0.00 0.00 0.00 54 1013.8
20260505231954 42 296 7.0 9.0 0.00 0.00 0.00 53 1014.0
20260505231451 42 296 7.0 17.0 0.00 0.00 0.00 53 1014.0
20260505230949 41 305 9.0 11.0 0.00 0.00 0.00 54 1013.8
20260505230441 41 331 6.0 13.0 0.00 0.00 0.00 53 1013.7
20260505225937 42 282 9.0 15.0 0.00 0.00 0.00 54 1013.9
20260505225435 41 307 9.0 10.0 0.00 0.00 0.00 54 1013.7
20260505224930 41 288 9.0 13.0 0.00 0.00 0.00 55 1013.7
20260505224428 41 288 9.0 13.0 0.00 0.00 0.00 55 1013.6
20260505223925 43 271 6.0 7.0 0.00 0.00 0.00 53 1013.8
20260505223422 42 305 5.0 11.0 0.00 0.00 0.00 54 1013.9
20260505222918 43 269 6.0 11.0 0.00 0.00 0.00 52 1013.8
20260505222414 41 2 5.0 6.0 0.00 0.00 0.00 55 1013.6
20260505221910 42 308 8.0 11.0 0.00 0.00 0.00 55 1013.7
20260505221408 42 329 7.0 14.0 0.00 0.00 0.00 55 1013.5
20260505220905 42 326 7.0 10.0 0.00 0.00 0.00 56 1013.4
20260505220402 42 249 4.0 7.0 0.00 0.00 0.00 55 1013.5
20260505215859 42 196 4.0 8.0 0.00 0.00 0.00 56 1013.5
20260505215357 42 301 9.0 10.0 0.00 0.00 0.00 55 1013.8
20260505214855 42 275 7.0 8.0 0.00 0.00 0.00 57 1013.5
20260505214352 43 290 6.0 11.0 0.00 0.00 0.00 54 1013.5
20260505213849 42 258 6.0 11.0 0.00 0.00 0.00 53 1013.4
20260505213347 42 284 5.0 8.0 0.00 0.00 0.00 54 1013.4
20260505212843 42 298 4.0 8.0 0.00 0.00 0.00 54 1013.6
20260505212340 43 213 6.0 7.0 0.00 0.00 0.00 54 1013.3
20260505211836 43 283 4.0 6.0 0.00 0.00 0.00 51 1013.4
20260505211334 43 336 6.0 7.0 0.00 0.00 0.00 52 1013.6
20260505210830 42 265 10.0 11.0 0.00 0.00 0.00 54 1013.5
20260505210327 42 342 5.0 8.0 0.00 0.00 0.00 52 1013.2
20260505205824 42 276 8.0 10.0 0.00 0.00 0.00 51 1013.4
20260505205322 43 297 4.0 14.0 0.00 0.00 0.00 51 1013.4
20260505204819 43 302 4.0 9.0 0.00 0.00 0.00 51 1013.4
20260505204317 43 247 9.0 11.0 0.00 0.00 0.00 50 1013.3
20260505203814 43 315 9.0 11.0 0.00 0.00 0.00 50 1013.2
20260505203310 42 248 4.0 6.0 0.00 0.00 0.00 52 1013.4
20260505202807 42 263 7.0 9.0 0.00 0.00 0.00 51 1013.2
20260505202306 43 4 6.0 10.0 0.00 0.00 0.00 52 1013.4
20260505201800 43 341 2.0 10.0 0.00 0.00 0.00 54 1013.6
20260505201257 43 342 5.0 7.0 0.00 0.00 0.00 54 1013.5
20260505200755 43 315 6.0 10.0 0.00 0.00 0.00 51 1013.5
20260505200252 43 297 10.0 11.0 0.00 0.00 0.00 52 1013.4
20260505195747 43 274 9.0 13.0 0.00 0.00 0.00 52 1013.3
20260505195245 43 286 9.0 13.0 0.00 0.00 0.00 51 1013.1
20260505194742 43 292 8.0 10.0 0.00 0.00 0.00 52 1013.2
20260505194239 43 292 8.0 10.0 0.00 0.00 0.00 52 1013.3
20260505193734 42 309 7.0 9.0 0.00 0.00 0.00 53 1013.3
20260505193232 42 309 7.0 9.0 0.00 0.00 0.00 53 1013.2
20260505192730 42 309 7.0 9.0 0.00 0.00 0.00 53 1013.3
20260505192228 43 301 7.0 9.0 0.00 0.00 0.00 52 1013.1
20260505191726 43 263 3.0 8.0 0.00 0.00 0.00 53 1013.1
20260505191224 43 357 6.0 8.0 0.00 0.00 0.00 52 1013.2
20260505190720 42 312 5.0 9.0 0.00 0.00 0.00 56 1013.2
20260505190220 43 336 9.0 11.0 0.00 0.00 0.00 53 1013.2
20260505185716 43 289 6.0 8.0 0.00 0.00 0.00 54 1013.2
20260505185213 44 319 7.0 15.0 0.00 0.00 0.00 53 1012.9
20260505184709 43 35 2.0 11.0 0.00 0.00 0.00 54 1012.9
20260505184207 43 294 10.0 16.0 0.00 0.00 0.00 50 1012.9
20260505183703 44 300 8.0 11.0 0.00 0.00 0.00 51 1012.9
20260505183201 43 289 6.0 7.0 0.00 0.00 0.00 53 1012.7
20260505182656 44 350 6.0 10.0 0.00 0.00 0.00 53 1013.0
20260505182154 44 289 6.0 9.0 0.00 0.00 0.00 53 1012.7
20260505181650 44 302 6.0 9.0 0.00 0.00 0.00 52 1012.7
20260505181148 43 304 5.0 9.0 0.00 0.00 0.00 52 1012.7
20260505180644 43 298 8.0 14.0 0.00 0.00 0.00 52 1012.7
20260505180141 43 241 7.0 10.0 0.00 0.00 0.00 50 1012.4
20260505175637 43 290 5.0 10.0 0.00 0.00 0.00 51 1012.2
20260505175134 43 260 7.0 16.0 0.00 0.00 0.00 52 1012.7
20260505174631 43 290 11.0 16.0 0.00 0.00 0.00 49 1012.5
20260505174126 43 277 7.0 13.0 0.00 0.00 0.00 51 1012.2
20260505173623 43 278 5.0 10.0 0.00 0.00 0.00 52 1012.4
20260505173114 43 19 5.0 11.0 0.00 0.00 0.00 52 1012.2
20260505172612 43 304 9.0 15.0 0.00 0.00 0.00 52 1012.5
20260505172108 43 357 6.0 11.0 0.00 0.00 0.00 50 1012.4
20260505171603 44 294 4.0 11.0 0.00 0.00 0.00 49 1012.4
20260505171101 44 232 8.0 11.0 0.00 0.00 0.00 47 1012.1
20260505170557 44 329 5.0 9.0 0.00 0.00 0.00 50 1012.0
20260505170054 44 336 9.0 14.0 0.00 0.00 0.00 50 1012.2
20260505165549 45 297 6.0 13.0 0.00 0.00 0.00 51 1012.4
20260505165045 42 307 3.0 9.0 0.00 0.00 0.00 55 1012.1
20260505164541 42 345 7.0 10.0 0.00 0.00 0.00 52 1012.4
20260505164038 42 292 5.0 9.0 0.00 0.00 0.00 51 1012.2
20260505163537 42 326 9.0 10.0 0.00 0.00 0.00 51 1012.4
20260505163033 42 221 5.0 9.0 0.00 0.00 0.00 53 1012.4
20260505162526 42 345 5.0 9.0 0.00 0.00 0.00 53 1012.1
20260505162024 43 335 3.0 9.0 0.00 0.00 0.00 55 1012.1
20260505161520 42 263 5.0 14.0 0.00 0.00 0.00 51 1012.2
20260505161017 43 277 9.0 14.0 0.00 0.00 0.00 50 1012.0
20260505160515 43 284 8.0 13.0 0.00 0.00 0.00 49 1012.2
20260505152951 42 297 5.0 9.0 0.00 0.00 0.00 55 1011.9
20260505152449 43 310 4.0 10.0 0.00 0.00 0.00 55 1011.7
20260505151944 43 305 7.0 8.0 0.00 0.00 0.00 58 1012.0
20260505151440 43 228 6.0 13.0 0.00 0.00 0.00 57 1011.8
20260505150937 43 309 7.0 10.0 0.00 0.00 0.00 57 1011.9
20260505150434 43 256 9.0 15.0 0.00 0.00 0.00 55 1011.9
20260505140404 40 306 3.0 6.0 0.00 0.00 0.00 60 1011.6
20260505124817 36 255 4.0 10.0 0.00 0.00 0.00 64 1011.1
20260505124314 37 239 5.0 7.0 0.00 0.00 0.00 66 1011.2
20260505123810 36 265 4.0 6.0 0.00 0.00 0.00 66 1010.9
20260505123307 36 272 4.0 6.0 0.00 0.00 0.00 67 1011.0
20260505122803 36 293 4.0 4.0 0.00 0.00 0.00 67 1010.8
20260505122301 36 308 3.0 6.0 0.00 0.00 0.00 67 1010.9
20260505121757 35 249 1.0 2.0 0.00 0.00 0.00 67 1010.9
20260505121254 35 261 2.0 3.0 0.00 0.00 0.00 66 1010.6
20260505120750 35 302 4.0 6.0 0.00 0.00 0.00 67 1010.7
20260505120247 35 239 0.0 1.0 0.00 0.00 0.00 67 1010.6
20260505115745 35 314 2.0 4.0 0.00 0.00 0.00 67 1010.6
20260505115243 34 332 2.0 3.0 0.00 0.00 0.00 68 1010.5
20260505114740 34 246 1.0 2.0 0.00 0.00 0.00 67 1010.2
20260505114236 33 246 1.0 3.0 0.00 0.00 0.00 68 1010.2
20260505113733 33 303 2.0 3.0 0.00 0.00 0.00 70 1010.3
20260505113230 32 240 0.0 1.0 0.00 0.00 0.00 72 1010.1
20260505112726 32 282 2.0 2.0 0.00 0.00 0.00 73 1010.4
20260505112224 32 262 1.0 3.0 0.00 0.00 0.00 74 1010.1
20260505111723 32 223 0.0 2.0 0.00 0.00 0.00 74 1010.3
20260505111219 32 247 1.0 2.0 0.00 0.00 0.00 75 1010.2
20260505110715 32 229 1.0 3.0 0.00 0.00 0.00 75 1010.1
20260505110213 32 239 2.0 3.0 0.00 0.00 0.00 74 1010.2
20260505102148 33 275 0.0 1.0 0.00 0.00 0.00 71 1010.0
20260505101647 34 281 1.0 4.0 0.00 0.00 0.00 71 1009.9
20260505101143 33 307 2.0 2.0 0.00 0.00 0.00 72 1009.7
20260505100639 34 272 0.0 3.0 0.00 0.00 0.00 70 1010.1
20260505100136 34 295 1.0 1.0 0.00 0.00 0.00 71 1009.9
20260505095632 34 341 3.0 3.0 0.00 0.00 0.00 70 1010.1
20260505095130 35 266 1.0 4.0 0.00 0.00 0.00 69 1010.2
20260505094626 35 29 1.0 3.0 0.00 0.00 0.00 69 1010.1
20260505094122 35 22 1.0 3.0 0.00 0.00 0.00 69 1010.1
20260505093618 35 285 2.0 2.0 0.00 0.00 0.00 69 1010.0
20260505093116 35 330 2.0 6.0 0.00 0.00 0.00 69 1010.1
20260505092613 35 323 1.0 6.0 0.00 0.00 0.00 69 1010.0
20260505092112 35 326 2.0 2.0 0.00 0.00 0.00 68 1009.9
20260505091608 36 18 3.0 6.0 0.00 0.00 0.00 67 1010.1
20260505091106 36 357 3.0 6.0 0.00 0.00 0.00 67 1010.0
20260505090604 36 348 5.0 8.0 0.00 0.00 0.00 66 1010.0
20260505085559 36 9 3.0 7.0 0.00 0.00 0.00 70 1010.0
20260505085057 36 13 1.0 6.0 0.00 0.00 0.00 72 1009.7
20260505084555 36 30 2.0 6.0 0.00 0.00 0.00 73 1009.9
20260505084053 37 76 2.0 7.0 0.00 0.00 0.00 73 1009.7
20260505083549 37 342 2.0 3.0 0.00 0.00 0.00 74 1009.7
20260505083046 37 29 1.0 4.0 0.00 0.00 0.00 75 1009.5
20260505082542 36 5 4.0 6.0 0.00 0.00 0.00 76 1009.6
20260505082039 36 305 0.0 3.0 0.00 0.00 0.00 77 1009.6
20260505081535 37 313 2.0 3.0 0.00 0.00 0.00 76 1009.4
20260505081032 37 314 5.0 7.0 0.00 0.00 0.00 75 1009.4
20260505080529 37 314 4.0 6.0 0.00 0.00 0.00 74 1009.5
20260505080026 37 324 5.0 7.0 0.00 0.00 0.00 73 1009.6
20260505075521 38 331 3.0 8.0 0.00 0.00 0.00 73 1009.6
20260505075018 38 73 1.0 7.0 0.00 0.00 0.00 73 1009.5
20260505074516 38 359 4.0 7.0 0.00 0.00 0.00 72 1009.4
20260505074013 38 335 2.0 2.0 0.00 0.00 0.00 72 1009.4
20260505073510 39 53 4.0 7.0 0.00 0.00 0.00 72 1009.4
20260505073008 39 343 3.0 4.0 0.00 0.00 0.00 71 1009.4
20260505072504 39 312 5.0 7.0 0.00 0.00 0.00 71 1009.5
20260505072000 39 5 5.0 7.0 0.00 0.00 0.00 70 1009.4
20260505071455 39 359 2.0 4.0 0.00 0.00 0.00 70 1009.4
20260505070954 39 358 1.0 2.0 0.00 0.00 0.00 68 1009.2
20260505070450 39 336 4.0 7.0 0.00 0.00 0.00 67 1009.4
20260505065946 40 10 4.0 4.0 0.00 0.00 0.00 67 1009.2
20260505065443 40 334 4.0 8.0 0.00 0.00 0.00 66 1009.3
20260505064939 40 355 4.0 6.0 0.00 0.00 0.00 67 1009.3
20260505064436 40 341 3.0 8.0 0.00 0.00 0.00 66 1009.2
20260505063935 40 316 3.0 4.0 0.00 0.00 0.00 67 1009.2
20260505063431 40 256 4.0 8.0 0.00 0.00 0.00 66 1009.1
20260505062928 40 332 3.0 6.0 0.00 0.00 0.00 67 1009.1
20260505062425 40 268 1.0 2.0 0.00 0.00 0.00 68 1009.3
20260505061921 40 302 3.0 3.0 0.00 0.00 0.00 68 1009.1
20260505061420 40 287 1.0 4.0 0.00 0.00 0.00 68 1009.3
20260505060917 40 276 2.0 3.0 0.00 0.00 0.00 69 1009.0
20260505060414 40 255 2.0 7.0 0.00 0.00 0.00 68 1009.0
20260505055910 40 284 1.0 7.0 0.00 0.00 0.00 68 1008.9
20260505055406 40 324 3.0 7.0 0.00 0.00 0.00 68 1008.9
20260505054903 40 280 5.0 6.0 0.00 0.00 0.00 69 1008.9
20260505054400 40 342 2.0 6.0 0.00 0.00 0.00 70 1008.9
20260505053859 40 259 2.0 3.0 0.00 0.00 0.00 71 1008.9
20260505053355 39 315 5.0 6.0 0.00 0.00 0.00 71 1009.0
20260505052852 39 293 2.0 2.0 0.00 0.00 0.00 71 1009.0
20260505052349 39 244 1.0 3.0 0.00 0.00 0.00 72 1008.9
20260505051846 39 279 2.0 3.0 0.00 0.00 0.00 71 1008.9
20260505051343 39 245 2.0 2.0 0.00 0.00 0.00 71 1008.8
20260505050841 39 232 1.0 2.0 0.00 0.00 0.00 71 1008.6
20260505050340 39 243 1.0 3.0 0.00 0.00 0.00 70 1008.7
20260505041307 40 332 3.0 6.0 0.00 0.00 0.00 68 1008.7
20260505040804 40 282 0.0 2.0 0.00 0.00 0.00 68 1008.6
20260505040302 41 2 1.0 3.0 0.00 0.00 0.00 67 1008.6
20260505035758 41 337 3.0 7.0 0.00 0.00 0.00 65 1008.4
20260505035254 41 320 3.0 4.0 0.00 0.00 0.00 65 1008.8
20260505034751 41 342 3.0 7.0 0.00 0.00 0.00 64 1008.5
20260505034248 42 9 2.0 8.0 0.00 0.00 0.00 64 1008.5
20260505033744 42 333 4.0 9.0 0.00 0.00 0.00 63 1008.5
20260505033242 42 358 5.0 7.0 0.00 0.00 0.00 62 1008.6
20260505032740 42 18 4.0 7.0 0.00 0.00 0.00 61 1008.6
20260505032236 42 359 4.0 8.0 0.00 0.00 0.00 57 1008.5
20260505031733 43 23 2.0 4.0 0.00 0.00 0.00 55 1008.4
20260505031229 43 314 3.0 4.0 0.00 0.00 0.00 53 1008.1
20260505030726 43 286 4.0 6.0 0.00 0.00 0.00 53 1008.3
20260505030222 43 293 2.0 9.0 0.00 0.00 0.00 53 1008.2
20260505025718 43 304 4.0 7.0 0.00 0.00 0.00 52 1008.2
20260505025217 43 345 4.0 7.0 0.00 0.00 0.00 51 1007.8
20260505024715 43 337 4.0 6.0 0.00 0.00 0.00 51 1007.9
20260505024211 44 338 6.0 7.0 0.00 0.00 0.00 50 1007.9
20260505023709 44 306 5.0 7.0 0.00 0.00 0.00 50 1007.8
20260505023206 44 311 6.0 13.0 0.00 0.00 0.00 49 1007.9
20260505022704 44 336 5.0 6.0 0.00 0.00 0.00 49 1007.7
20260505022200 44 267 3.0 8.0 0.00 0.00 0.00 49 1007.8
20260505021657 44 307 7.0 11.0 0.00 0.00 0.00 49 1007.8
20260505021154 43 304 6.0 8.0 0.00 0.00 0.00 49 1007.6
20260505020649 44 315 4.0 4.0 0.00 0.00 0.00 51 1007.4
20260505020145 44 314 4.0 10.0 0.00 0.00 0.00 50 1007.5
20260505015643 44 350 5.0 9.0 0.00 0.00 0.00 50 1007.4
20260505015139 44 296 4.0 6.0 0.00 0.00 0.00 50 1007.2
20260505014636 44 274 4.0 10.0 0.00 0.00 0.00 50 1007.1
20260505014133 44 305 8.0 14.0 0.00 0.00 0.00 50 1007.1
20260505013631 44 298 9.0 11.0 0.00 0.00 0.00 51 1007.5
20260505013128 44 266 2.0 8.0 0.00 0.00 0.00 51 1007.1
20260505012626 44 265 5.0 8.0 0.00 0.00 0.00 51 1006.9
20260505012122 45 300 6.0 8.0 0.00 0.00 0.00 51 1006.9
20260505011618 45 12 4.0 8.0 0.00 0.00 0.00 50 1006.8